CW0655 Weather Reports


Display with metric or nautical units.
time (UTC)temp
F
wind
direction
speed
MPH
gust
MPH
rain 1hr
in
rain 24hr
in
rain mn
in
humidity
%
barometer
mb
20200217100116 27 142 0.0 0.0 0.00 0.06 0.00 87 1019.2
20200217095116 27 142 0.0 0.0 0.00 0.06 0.00 86 1019.3
20200217093115 27 142 0.0 0.0 0.00 0.06 0.00 86 1019.1
20200217085115 28 142 0.0 0.0 0.00 0.06 0.00 84 1018.6
20200217084115 28 142 0.0 0.0 0.00 0.06 0.00 83 1018.3
20200217083115 28 142 0.0 0.0 0.00 0.06 0.00 83 1018.3
20200217081114 29 142 0.0 0.0 0.00 0.06 0.00 83 1018.0
20200217080115 29 142 0.0 0.0 0.00 0.06 0.00 83 1018.0
20200217072115 29 142 0.0 0.0 0.00 0.06 0.00 82 1018.2
20200217071115 29 142 0.0 0.0 0.00 0.06 0.00 82 1018.2
20200217070114 28 167 0.0 0.0 0.00 0.06 0.00 82 1018.1
20200217055114 30 167 0.0 0.0 0.00 0.06 0.00 79 1018.3
20200217053114 30 167 0.0 0.0 0.00 0.06 0.00 80 1018.1
20200217052113 30 167 0.0 0.0 0.00 0.06 0.00 81 1018.0
20200217051113 29 167 0.0 0.0 0.00 0.06 0.00 81 1018.0
20200217045113 30 167 0.0 0.0 0.00 0.06 0.06 79 1018.0
20200217044113 30 167 0.0 0.0 0.00 0.06 0.06 79 1017.9
20200217025111 33 167 0.0 0.0 0.00 0.06 0.06 76 1018.0
20200217014110 34 167 0.0 0.0 0.00 0.06 0.06 77 1018.0
20200217005109 34 167 0.0 0.0 0.00 0.06 0.06 75 1017.8
20200217004109 34 167 0.0 0.0 0.01 0.06 0.06 74 1017.6
20200217002109 34 167 0.0 0.0 0.01 0.06 0.06 74 1017.5
20200216234109 35 167 0.0 0.0 0.00 0.05 0.05 72 1018.0
20200216233109 35 167 0.0 0.0 0.00 0.05 0.05 72 1018.0
20200216231108 35 167 0.0 0.0 0.00 0.05 0.05 71 1017.9
20200216230108 35 167 0.0 0.0 0.00 0.05 0.05 71 1017.7
20200216220108 37 167 0.0 0.0 0.02 0.05 0.05 68 1017.3
20200216215108 38 167 0.0 0.0 0.03 0.05 0.05 66 1017.3
20200216214107 38 167 0.0 0.0 0.02 0.04 0.04 64 1017.4
20200216211107 39 167 0.0 0.0 0.04 0.04 0.04 61 1017.1
20200216210107 40 167 0.0 0.0 0.03 0.03 0.03 60 1017.1
20200216204107 40 167 0.0 0.0 0.02 0.02 0.02 60 1017.4
20200216194106 39 151 0.0 1.0 0.00 0.01 0.00 59 1017.6
20200216192105 38 150 0.0 0.0 0.00 0.01 0.00 62 1017.6
20200216190105 38 202 0.0 0.0 0.00 0.01 0.00 60 1017.6
20200216185105 38 202 0.0 0.0 0.00 0.01 0.00 61 1017.7
20200216184105 38 202 0.0 0.0 0.00 0.01 0.00 61 1017.9
20200216182105 37 202 0.0 1.0 0.00 0.01 0.00 64 1018.0
20200216175104 36 202 0.0 0.0 0.00 0.01 0.00 63 1018.4
20200216173104 35 202 0.0 0.0 0.00 0.01 0.00 63 1018.4
20200216170104 34 200 0.0 1.0 0.00 0.01 0.00 65 1019.2
20200216165103 34 222 0.0 0.0 0.00 0.01 0.00 65 1019.3
20200216162103 33 223 0.0 3.0 0.00 0.01 0.00 65 1019.8
20200216161103 33 190 0.0 3.0 0.00 0.01 0.00 65 1019.9
20200216154102 33 189 0.0 5.0 0.00 0.01 0.00 66 1020.1
20200216153102 32 182 0.0 4.0 0.00 0.01 0.00 66 1020.3
20200216152102 33 219 0.0 3.0 0.00 0.01 0.00 66 1020.3
20200216151102 33 188 0.0 1.0 0.00 0.01 0.00 65 1020.4
20200216150102 32 207 0.0 0.0 0.00 0.01 0.00 67 1020.5
20200216143101 30 192 0.0 1.0 0.00 0.01 0.00 69 1020.7
20200216141101 29 248 0.0 2.0 0.00 0.01 0.00 70 1020.9
20200216133100 28 96 0.0 2.0 0.00 0.01 0.00 70 1021.1
20200216125100 27 211 0.0 0.0 0.00 0.01 0.00 73 1021.4
20200216115058 26 212 0.0 5.0 0.00 0.01 0.00 70 1021.3
20200216102057 26 204 0.0 0.0 0.00 0.01 0.00 72 1021.4